Year,Month,Day,Hour,Minute,Value (Times are PST for temperature in C)
2015,07,02,00,00,21.10
2015,07,02,00,01,21.10
2015,07,02,00,02,21.10
2015,07,02,00,03,21.10
2015,07,02,00,04,21.10
2015,07,02,00,05,21.10
2015,07,02,00,06,21.10
2015,07,02,00,07,21.10
2015,07,02,00,08,21.10
2015,07,02,00,09,21.10
2015,07,02,00,10,21.10
2015,07,02,00,11,21.10
2015,07,02,00,12,21.10
2015,07,02,00,13,21.10
2015,07,02,00,14,21.00
2015,07,02,00,15,21.00
2015,07,02,00,16,21.00
2015,07,02,00,17,20.90
2015,07,02,00,18,20.90
2015,07,02,00,19,20.90
2015,07,02,00,20,20.90
2015,07,02,00,21,20.90
2015,07,02,00,22,20.80
2015,07,02,00,23,20.80
2015,07,02,00,24,20.80
2015,07,02,00,25,20.80
2015,07,02,00,26,20.80
2015,07,02,00,27,20.80
2015,07,02,00,28,20.80
2015,07,02,00,29,20.80
2015,07,02,00,30,20.70
2015,07,02,00,31,20.70
2015,07,02,00,32,20.70
2015,07,02,00,33,20.70
2015,07,02,00,34,20.70
2015,07,02,00,35,20.70
2015,07,02,00,36,20.70
2015,07,02,00,37,20.60
2015,07,02,00,38,20.60
2015,07,02,00,39,20.60
2015,07,02,00,40,20.60
2015,07,02,00,41,20.60
2015,07,02,00,42,20.60
2015,07,02,00,43,20.50
2015,07,02,00,44,20.50
2015,07,02,00,45,20.50
2015,07,02,00,46,20.50
2015,07,02,00,47,20.40
2015,07,02,00,48,20.40
2015,07,02,00,49,20.40
2015,07,02,00,50,20.40
2015,07,02,00,51,20.40
2015,07,02,00,52,20.40
2015,07,02,00,53,20.30
2015,07,02,00,54,20.30
2015,07,02,00,55,20.30
2015,07,02,00,56,20.30
2015,07,02,00,57,20.30
2015,07,02,00,58,20.30
2015,07,02,00,59,20.30
2015,07,02,01,00,20.30
2015,07,02,01,01,20.30
2015,07,02,01,02,20.20
2015,07,02,01,03,20.20
2015,07,02,01,04,20.20
2015,07,02,01,05,20.20
2015,07,02,01,06,20.20
2015,07,02,01,07,20.20
2015,07,02,01,08,20.10
2015,07,02,01,09,20.10
2015,07,02,01,10,20.10
2015,07,02,01,11,20.10
2015,07,02,01,12,20.10
2015,07,02,01,13,20.10
2015,07,02,01,14,20.10
2015,07,02,01,15,20.00
2015,07,02,01,16,20.00
2015,07,02,01,17,20.00
2015,07,02,01,18,20.00
2015,07,02,01,19,20.00
2015,07,02,01,20,19.90
2015,07,02,01,21,19.90
2015,07,02,01,22,19.90
2015,07,02,01,23,19.90
2015,07,02,01,24,19.90
2015,07,02,01,25,19.90
2015,07,02,01,26,19.90
2015,07,02,01,27,19.80
2015,07,02,01,28,19.80
2015,07,02,01,29,19.80
2015,07,02,01,30,19.80
2015,07,02,01,31,19.80
2015,07,02,01,32,19.80
2015,07,02,01,33,19.80
2015,07,02,01,34,19.80
2015,07,02,01,35,19.70
2015,07,02,01,36,19.70
2015,07,02,01,37,19.70
2015,07,02,01,38,19.70
2015,07,02,01,39,19.70
2015,07,02,01,40,19.70
2015,07,02,01,41,19.70
2015,07,02,01,42,19.60
2015,07,02,01,43,19.60
2015,07,02,01,44,19.60
2015,07,02,01,45,19.60
2015,07,02,01,46,19.60
2015,07,02,01,47,19.60
2015,07,02,01,48,19.60
2015,07,02,01,49,19.60
2015,07,02,01,50,19.60
2015,07,02,01,51,19.60
2015,07,02,01,52,19.50
2015,07,02,01,53,19.50
2015,07,02,01,54,19.50
2015,07,02,01,55,19.50
2015,07,02,01,56,19.40
2015,07,02,01,57,19.40
2015,07,02,01,58,19.40
2015,07,02,01,59,19.40
2015,07,02,02,00,19.40
2015,07,02,02,01,19.40
2015,07,02,02,02,19.40
2015,07,02,02,03,19.40
2015,07,02,02,04,19.40
2015,07,02,02,05,19.30
2015,07,02,02,06,19.30
2015,07,02,02,07,19.30
2015,07,02,02,08,19.30
2015,07,02,02,09,19.30
2015,07,02,02,10,19.30
2015,07,02,02,11,19.30
2015,07,02,02,12,19.30
2015,07,02,02,13,19.20
2015,07,02,02,14,19.20
2015,07,02,02,15,19.20
2015,07,02,02,16,19.20
2015,07,02,02,17,19.10
2015,07,02,02,18,19.10
2015,07,02,02,19,19.10
2015,07,02,02,20,19.10
2015,07,02,02,21,19.10
2015,07,02,02,22,19.00
2015,07,02,02,23,19.00
2015,07,02,02,24,19.00
2015,07,02,02,25,19.00
2015,07,02,02,26,19.00
2015,07,02,02,27,19.00
2015,07,02,02,28,18.90
2015,07,02,02,29,18.90
2015,07,02,02,30,18.90
2015,07,02,02,31,18.90
2015,07,02,02,32,18.90
2015,07,02,02,33,18.90
2015,07,02,02,34,18.90
2015,07,02,02,35,18.90
2015,07,02,02,36,18.90
2015,07,02,02,37,18.90
2015,07,02,02,38,18.80
2015,07,02,02,39,18.80
2015,07,02,02,40,18.80
2015,07,02,02,41,18.80
2015,07,02,02,42,18.80
2015,07,02,02,43,18.80
2015,07,02,02,44,18.70
2015,07,02,02,45,18.70
2015,07,02,02,46,18.70
2015,07,02,02,47,18.70
2015,07,02,02,48,18.70
2015,07,02,02,49,18.60
2015,07,02,02,50,18.60
2015,07,02,02,51,18.60
2015,07,02,02,52,18.60
2015,07,02,02,53,18.60
2015,07,02,02,54,18.60
2015,07,02,02,55,18.60
2015,07,02,02,56,18.60
2015,07,02,02,57,18.60
2015,07,02,02,58,18.60
2015,07,02,02,59,18.60
2015,07,02,03,00,18.60
2015,07,02,03,01,18.60
2015,07,02,03,02,18.60
2015,07,02,03,03,18.50
2015,07,02,03,04,18.50
2015,07,02,03,05,18.50
2015,07,02,03,06,18.50
2015,07,02,03,07,18.60
2015,07,02,03,08,18.60
2015,07,02,03,09,18.60
2015,07,02,03,10,18.50
2015,07,02,03,11,18.50
2015,07,02,03,12,18.50
2015,07,02,03,13,18.50
2015,07,02,03,14,18.50
2015,07,02,03,15,18.50
2015,07,02,03,16,18.50
2015,07,02,03,17,18.50
2015,07,02,03,18,18.50
2015,07,02,03,19,18.50
2015,07,02,03,20,18.40
2015,07,02,03,21,18.40
2015,07,02,03,22,18.40
2015,07,02,03,23,18.40
2015,07,02,03,24,18.40
2015,07,02,03,25,18.40
2015,07,02,03,26,18.40
2015,07,02,03,27,18.40
2015,07,02,03,28,18.40
2015,07,02,03,29,18.40
2015,07,02,03,30,18.40
2015,07,02,03,31,18.40
2015,07,02,03,32,18.40
2015,07,02,03,33,18.40
2015,07,02,03,34,18.30
2015,07,02,03,35,18.30
2015,07,02,03,36,18.30
2015,07,02,03,37,18.30
2015,07,02,03,38,18.30
2015,07,02,03,39,18.30
2015,07,02,03,40,18.30
2015,07,02,03,41,18.30
2015,07,02,03,42,18.20
2015,07,02,03,43,18.20
2015,07,02,03,44,18.20
2015,07,02,03,45,18.20
2015,07,02,03,46,18.20
2015,07,02,03,47,18.20
2015,07,02,03,48,18.20
2015,07,02,03,49,18.20
2015,07,02,03,50,18.10
2015,07,02,03,51,18.10
2015,07,02,03,52,18.10
2015,07,02,03,53,18.10
2015,07,02,03,54,18.10
2015,07,02,03,55,18.10
2015,07,02,03,56,18.10
2015,07,02,03,57,18.10
2015,07,02,03,58,18.00
2015,07,02,03,59,18.00
2015,07,02,04,00,18.00
2015,07,02,04,01,18.00
2015,07,02,04,02,18.00
2015,07,02,04,03,18.00
2015,07,02,04,04,18.00
2015,07,02,04,05,17.90
2015,07,02,04,06,17.90
2015,07,02,04,07,17.90
2015,07,02,04,08,17.90
2015,07,02,04,09,17.90
2015,07,02,04,10,17.90
2015,07,02,04,11,17.90
2015,07,02,04,12,17.90
2015,07,02,04,13,17.90
2015,07,02,04,14,17.90
2015,07,02,04,15,17.80
2015,07,02,04,16,17.80
2015,07,02,04,17,17.80
2015,07,02,04,18,17.80
2015,07,02,04,19,17.80
2015,07,02,04,20,17.80
2015,07,02,04,21,17.80
2015,07,02,04,22,17.80
2015,07,02,04,23,17.70
2015,07,02,04,24,17.70
2015,07,02,04,25,17.70
2015,07,02,04,26,17.70
2015,07,02,04,27,17.70
2015,07,02,04,28,17.70
2015,07,02,04,29,17.70
2015,07,02,04,30,17.70
2015,07,02,04,31,17.70
2015,07,02,04,32,17.70
2015,07,02,04,33,17.70
2015,07,02,04,34,17.70
2015,07,02,04,35,17.70
2015,07,02,04,36,17.60
2015,07,02,04,37,17.60
2015,07,02,04,38,17.60
2015,07,02,04,39,17.60
2015,07,02,04,40,17.60
2015,07,02,04,41,17.60
2015,07,02,04,42,17.60
2015,07,02,04,43,17.60
2015,07,02,04,44,17.60
2015,07,02,04,45,17.60
2015,07,02,04,46,17.50
2015,07,02,04,47,17.50
2015,07,02,04,48,17.50
2015,07,02,04,49,17.50
2015,07,02,04,50,17.50
2015,07,02,04,51,17.50
2015,07,02,04,52,17.50
2015,07,02,04,53,17.50
2015,07,02,04,54,17.40
2015,07,02,04,55,17.40
2015,07,02,04,56,17.40
2015,07,02,04,57,17.40
2015,07,02,04,58,17.40
2015,07,02,04,59,17.40
2015,07,02,05,00,17.40
2015,07,02,05,01,17.40
2015,07,02,05,02,17.30
2015,07,02,05,03,17.30
2015,07,02,05,04,17.30
2015,07,02,05,05,17.30
2015,07,02,05,06,17.30
2015,07,02,05,07,17.30
2015,07,02,05,08,17.30
2015,07,02,05,09,17.30
2015,07,02,05,10,17.30
2015,07,02,05,11,17.30
2015,07,02,05,12,17.30
2015,07,02,05,13,17.30
2015,07,02,05,14,17.30
2015,07,02,05,15,17.30
2015,07,02,05,16,17.30
2015,07,02,05,17,17.30
2015,07,02,05,18,17.30
2015,07,02,05,19,17.30
2015,07,02,05,20,17.30
2015,07,02,05,21,17.30
2015,07,02,05,22,17.20
2015,07,02,05,23,17.20
2015,07,02,05,24,17.20
2015,07,02,05,25,17.20
2015,07,02,05,26,17.20
2015,07,02,05,27,17.20
2015,07,02,05,28,17.20
2015,07,02,05,29,17.20
2015,07,02,05,30,17.20
2015,07,02,05,31,17.20
2015,07,02,05,32,17.20
2015,07,02,05,33,17.20
2015,07,02,05,34,17.20
2015,07,02,05,35,17.20
2015,07,02,05,36,17.20
2015,07,02,05,37,17.20
2015,07,02,05,38,17.20
2015,07,02,05,39,17.20
2015,07,02,05,40,17.20
2015,07,02,05,41,17.20
2015,07,02,05,42,17.20
2015,07,02,05,43,17.20
2015,07,02,05,44,17.20
2015,07,02,05,45,17.20
2015,07,02,05,46,17.20
2015,07,02,05,47,17.20
2015,07,02,05,48,17.20
2015,07,02,05,49,17.10
2015,07,02,05,50,17.10
2015,07,02,05,51,17.10
2015,07,02,05,52,17.10
2015,07,02,05,53,17.10
2015,07,02,05,54,17.10
2015,07,02,05,55,17.10
2015,07,02,05,56,17.10
2015,07,02,05,57,17.10
2015,07,02,05,58,17.10
2015,07,02,05,59,17.20
2015,07,02,06,00,17.20
2015,07,02,06,01,17.30
2015,07,02,06,02,17.30
2015,07,02,06,03,17.40
2015,07,02,06,04,17.50
2015,07,02,06,05,17.50
2015,07,02,06,06,17.60
2015,07,02,06,07,17.70
2015,07,02,06,08,17.70
2015,07,02,06,09,17.80
2015,07,02,06,10,17.80
2015,07,02,06,11,17.90
2015,07,02,06,12,18.00
2015,07,02,06,13,18.10
2015,07,02,06,14,18.20
2015,07,02,06,15,18.20
2015,07,02,06,16,18.30
2015,07,02,06,17,18.30
2015,07,02,06,18,18.40
2015,07,02,06,19,18.50
2015,07,02,06,20,18.60
2015,07,02,06,21,18.70
2015,07,02,06,22,18.80
2015,07,02,06,23,18.80
2015,07,02,06,24,18.90
2015,07,02,06,25,19.00
2015,07,02,06,26,19.00
2015,07,02,06,27,19.10
2015,07,02,06,28,19.20
2015,07,02,06,29,19.30
2015,07,02,06,30,19.30
2015,07,02,06,31,19.40
2015,07,02,06,32,19.40
2015,07,02,06,33,19.50
2015,07,02,06,34,19.60
2015,07,02,06,35,19.70
2015,07,02,06,36,19.70
2015,07,02,06,37,19.80
2015,07,02,06,38,19.80
2015,07,02,06,39,19.80
2015,07,02,06,40,19.80
2015,07,02,06,41,19.80
2015,07,02,06,42,19.80
2015,07,02,06,43,19.80
2015,07,02,06,44,19.80
2015,07,02,06,45,19.90
2015,07,02,06,46,19.90
2015,07,02,06,47,19.90
2015,07,02,06,48,20.00
2015,07,02,06,49,20.00
2015,07,02,06,50,20.10
2015,07,02,06,51,20.20
2015,07,02,06,52,20.40
2015,07,02,06,53,20.50
2015,07,02,06,54,20.70
2015,07,02,06,55,20.80
2015,07,02,06,56,21.00
2015,07,02,06,57,21.10
2015,07,02,06,58,21.20
2015,07,02,06,59,21.30
2015,07,02,07,00,21.40
2015,07,02,07,01,21.60
2015,07,02,07,02,21.70
2015,07,02,07,03,21.80
2015,07,02,07,04,21.90
2015,07,02,07,05,22.00
2015,07,02,07,06,22.10
2015,07,02,07,07,22.20
2015,07,02,07,08,22.30
2015,07,02,07,09,22.40
2015,07,02,07,10,22.50
2015,07,02,07,11,22.50
2015,07,02,07,12,22.60
2015,07,02,07,13,22.70
2015,07,02,07,14,22.70
2015,07,02,07,15,22.80
2015,07,02,07,16,22.80
2015,07,02,07,17,22.90
2015,07,02,07,18,22.90
2015,07,02,07,19,23.00
2015,07,02,07,20,23.00
2015,07,02,07,21,23.10
2015,07,02,07,22,23.10
2015,07,02,07,23,23.10
2015,07,02,07,24,23.00
2015,07,02,07,25,23.00
2015,07,02,07,26,23.00
2015,07,02,07,27,23.10
2015,07,02,07,28,23.10
2015,07,02,07,29,23.10
2015,07,02,07,30,23.10
2015,07,02,07,31,23.10
2015,07,02,07,32,23.10
2015,07,02,07,33,23.10
2015,07,02,07,34,23.10
2015,07,02,07,35,23.10
2015,07,02,07,36,23.10
2015,07,02,07,37,23.10
2015,07,02,07,38,23.10
2015,07,02,07,39,23.10
2015,07,02,07,40,23.20
2015,07,02,07,41,23.20
2015,07,02,07,42,23.30
2015,07,02,07,43,23.30
2015,07,02,07,44,23.30
2015,07,02,07,45,23.30
2015,07,02,07,46,23.30
2015,07,02,07,47,23.30
2015,07,02,07,48,23.30
2015,07,02,07,49,23.30
2015,07,02,07,50,23.40
2015,07,02,07,51,23.40
2015,07,02,07,52,23.50
2015,07,02,07,53,23.50
2015,07,02,07,54,23.60
2015,07,02,07,55,23.60
2015,07,02,07,56,23.70
2015,07,02,07,57,23.70
2015,07,02,07,58,23.80
2015,07,02,07,59,23.80
2015,07,02,08,00,23.80
2015,07,02,08,01,23.80
2015,07,02,08,02,23.90
2015,07,02,08,03,23.90
2015,07,02,08,04,23.90
2015,07,02,08,05,23.90
2015,07,02,08,06,23.90
2015,07,02,08,07,23.90
2015,07,02,08,08,23.90
2015,07,02,08,09,24.00
2015,07,02,08,10,24.00
2015,07,02,08,11,24.10
2015,07,02,08,12,24.00
2015,07,02,08,13,24.00
2015,07,02,08,14,24.00
2015,07,02,08,15,23.90
2015,07,02,08,16,23.90
2015,07,02,08,17,23.90
2015,07,02,08,18,23.90
2015,07,02,08,19,23.90
2015,07,02,08,20,23.90
2015,07,02,08,21,24.00
2015,07,02,08,22,24.00
2015,07,02,08,23,24.00
2015,07,02,08,24,24.00
2015,07,02,08,25,24.10
2015,07,02,08,26,24.10
2015,07,02,08,27,24.10
2015,07,02,08,28,24.10
2015,07,02,08,29,24.20
2015,07,02,08,30,24.20
2015,07,02,08,31,24.30
2015,07,02,08,32,24.30
2015,07,02,08,33,24.40
2015,07,02,08,34,24.50
2015,07,02,08,35,24.60
2015,07,02,08,36,24.70
2015,07,02,08,37,24.80
2015,07,02,08,38,24.90
2015,07,02,08,39,25.00
2015,07,02,08,40,25.00
2015,07,02,08,41,25.10
2015,07,02,08,42,25.10
2015,07,02,08,43,25.10
2015,07,02,08,44,25.10
2015,07,02,08,45,25.10
2015,07,02,08,46,25.10
2015,07,02,08,47,25.20
2015,07,02,08,48,25.20
2015,07,02,08,49,25.30
2015,07,02,08,50,25.40
2015,07,02,08,51,25.50
2015,07,02,08,52,25.50
2015,07,02,08,53,25.50
2015,07,02,08,54,25.40
2015,07,02,08,55,25.40
2015,07,02,08,56,25.40
2015,07,02,08,57,25.40
2015,07,02,08,58,25.40
2015,07,02,08,59,25.40
2015,07,02,09,00,25.30
2015,07,02,09,01,25.30
2015,07,02,09,02,25.30
2015,07,02,09,03,25.30
2015,07,02,09,04,25.30
2015,07,02,09,05,25.30
2015,07,02,09,06,25.40
2015,07,02,09,07,25.40
2015,07,02,09,08,25.40
2015,07,02,09,09,25.40
2015,07,02,09,10,25.40
2015,07,02,09,11,25.30
2015,07,02,09,12,25.30
2015,07,02,09,13,25.30
2015,07,02,09,14,25.30
2015,07,02,09,15,25.30
2015,07,02,09,16,25.40
2015,07,02,09,17,25.40
2015,07,02,09,18,25.50
2015,07,02,09,19,25.50
2015,07,02,09,20,25.50
2015,07,02,09,21,25.50
2015,07,02,09,22,25.50
2015,07,02,09,23,25.40
2015,07,02,09,24,25.40
2015,07,02,09,25,25.40
2015,07,02,09,26,25.40
2015,07,02,09,27,25.40
2015,07,02,09,28,25.40
2015,07,02,09,29,25.40
2015,07,02,09,30,25.50
2015,07,02,09,31,25.50
2015,07,02,09,32,25.50
2015,07,02,09,33,25.50
2015,07,02,09,34,25.30
2015,07,02,09,35,25.20
2015,07,02,09,36,25.00
2015,07,02,09,37,24.90
2015,07,02,09,38,24.80
2015,07,02,09,39,24.80
2015,07,02,09,40,24.70
2015,07,02,09,41,24.60
2015,07,02,09,42,24.50
2015,07,02,09,43,24.50
2015,07,02,09,44,24.50
2015,07,02,09,45,24.50
2015,07,02,09,46,24.60
2015,07,02,09,47,24.60
2015,07,02,09,48,24.70
2015,07,02,09,49,24.80
2015,07,02,09,50,24.80
2015,07,02,09,51,24.90
2015,07,02,09,52,25.00
2015,07,02,09,53,25.00
2015,07,02,09,54,25.10
2015,07,02,09,55,25.10
2015,07,02,09,56,25.20
2015,07,02,09,57,25.20
2015,07,02,09,58,25.10
2015,07,02,09,59,25.10
2015,07,02,10,00,25.00
2015,07,02,10,01,25.00
2015,07,02,10,02,25.00
2015,07,02,10,03,24.90
2015,07,02,10,04,24.90
2015,07,02,10,05,24.90
2015,07,02,10,06,24.80
2015,07,02,10,07,24.90
2015,07,02,10,08,24.90
2015,07,02,10,09,25.00
2015,07,02,10,10,25.10
2015,07,02,10,11,25.10
2015,07,02,10,12,25.10
2015,07,02,10,13,25.10
2015,07,02,10,14,25.20
2015,07,02,10,15,25.20
2015,07,02,10,16,25.20
2015,07,02,10,17,25.20
2015,07,02,10,18,25.20
2015,07,02,10,19,25.30
2015,07,02,10,20,25.30
2015,07,02,10,21,25.20
2015,07,02,10,22,25.20
2015,07,02,10,23,25.20
2015,07,02,10,24,25.20
2015,07,02,10,25,25.20
2015,07,02,10,26,25.30
2015,07,02,10,27,25.30
2015,07,02,10,28,25.40
2015,07,02,10,29,25.40
2015,07,02,10,30,25.40
2015,07,02,10,31,25.50
2015,07,02,10,32,25.60
2015,07,02,10,33,25.60
2015,07,02,10,34,25.60
2015,07,02,10,35,25.70
2015,07,02,10,36,25.80
2015,07,02,10,37,25.80
2015,07,02,10,38,25.90
2015,07,02,10,39,26.00
2015,07,02,10,40,26.00
2015,07,02,10,41,26.10
2015,07,02,10,42,26.20
2015,07,02,10,43,26.20
2015,07,02,10,44,26.20
2015,07,02,10,45,26.20
2015,07,02,10,46,26.10
2015,07,02,10,47,26.20
2015,07,02,10,48,26.20
2015,07,02,10,49,26.20
2015,07,02,10,50,26.20
2015,07,02,10,51,26.30
2015,07,02,10,52,26.30
2015,07,02,10,53,26.40
2015,07,02,10,54,26.50
2015,07,02,10,55,26.50
2015,07,02,10,56,26.60
2015,07,02,10,57,26.70
2015,07,02,10,58,26.70
2015,07,02,10,59,26.80
2015,07,02,11,00,26.90
2015,07,02,11,01,26.90
2015,07,02,11,02,27.00
2015,07,02,11,03,27.10
2015,07,02,11,04,27.20
2015,07,02,11,05,27.20
2015,07,02,11,06,27.20
2015,07,02,11,07,27.20
2015,07,02,11,08,27.00
2015,07,02,11,09,26.80
2015,07,02,11,10,26.70
2015,07,02,11,11,26.70
2015,07,02,11,12,26.70
2015,07,02,11,13,26.70
2015,07,02,11,14,26.70
2015,07,02,11,15,26.70
2015,07,02,11,16,26.70
2015,07,02,11,17,26.80
2015,07,02,11,18,26.80
2015,07,02,11,19,27.00
2015,07,02,11,20,27.10
2015,07,02,11,21,27.20
2015,07,02,11,22,27.30
2015,07,02,11,23,27.30
2015,07,02,11,24,27.30
2015,07,02,11,25,27.30
2015,07,02,11,26,27.30
2015,07,02,11,27,27.40
2015,07,02,11,28,27.40
2015,07,02,11,29,27.40
2015,07,02,11,30,27.30
2015,07,02,11,31,27.40
2015,07,02,11,32,27.40
2015,07,02,11,33,27.60
2015,07,02,11,34,27.70
2015,07,02,11,35,27.80
2015,07,02,11,36,27.80
2015,07,02,11,37,27.80
2015,07,02,11,38,27.80
2015,07,02,11,39,27.90
2015,07,02,11,40,27.90
2015,07,02,11,41,27.90
2015,07,02,11,42,27.90
2015,07,02,11,43,27.90
2015,07,02,11,44,27.90
2015,07,02,11,45,27.90
2015,07,02,11,46,28.00
2015,07,02,11,47,28.00
2015,07,02,11,48,28.10
2015,07,02,11,49,28.00
2015,07,02,11,50,27.90
2015,07,02,11,51,27.90
2015,07,02,11,52,27.90
2015,07,02,11,53,28.00
2015,07,02,11,54,28.10
2015,07,02,11,55,28.20
2015,07,02,11,56,28.20
2015,07,02,11,57,28.20
2015,07,02,11,58,28.20
2015,07,02,11,59,28.30
2015,07,02,12,00,28.30
2015,07,02,12,01,28.30
2015,07,02,12,02,28.30
2015,07,02,12,03,28.30
2015,07,02,12,04,28.40
2015,07,02,12,05,28.40
2015,07,02,12,06,28.40
2015,07,02,12,07,28.40
2015,07,02,12,08,28.40
2015,07,02,12,09,28.40
2015,07,02,12,10,28.40
2015,07,02,12,11,28.50
2015,07,02,12,12,28.40
2015,07,02,12,13,28.40
2015,07,02,12,14,28.40
2015,07,02,12,15,28.40
2015,07,02,12,16,28.30
2015,07,02,12,17,28.30
2015,07,02,12,18,28.30
2015,07,02,12,19,28.30
2015,07,02,12,20,28.30
2015,07,02,12,21,28.30
2015,07,02,12,22,28.30
2015,07,02,12,23,28.20
2015,07,02,12,24,28.20
2015,07,02,12,25,28.20
2015,07,02,12,26,28.20
2015,07,02,12,27,28.20
2015,07,02,12,28,28.30
2015,07,02,12,29,28.40
2015,07,02,12,30,28.40
2015,07,02,12,31,28.50
2015,07,02,12,32,28.40
2015,07,02,12,33,28.50
2015,07,02,12,34,28.50
2015,07,02,12,35,28.60
2015,07,02,12,36,28.60
2015,07,02,12,37,28.60
2015,07,02,12,38,28.60
2015,07,02,12,39,28.60
2015,07,02,12,40,28.60
2015,07,02,12,41,28.60
2015,07,02,12,42,28.70
2015,07,02,12,43,28.70
2015,07,02,12,44,28.80
2015,07,02,12,45,28.80
2015,07,02,12,46,28.90
2015,07,02,12,47,28.90
2015,07,02,12,48,28.80
2015,07,02,12,49,28.70
2015,07,02,12,50,28.70
2015,07,02,12,51,28.70
2015,07,02,12,52,28.60
2015,07,02,12,53,28.50
2015,07,02,12,54,28.50
2015,07,02,12,55,28.50
2015,07,02,12,56,28.60
2015,07,02,12,57,28.60
2015,07,02,12,58,28.70
2015,07,02,12,59,28.70
2015,07,02,13,00,28.80
2015,07,02,13,01,28.80
2015,07,02,13,02,28.80
2015,07,02,13,03,28.80
2015,07,02,13,04,28.80
2015,07,02,13,05,28.80
2015,07,02,13,06,28.70
2015,07,02,13,07,28.60
2015,07,02,13,08,28.60
2015,07,02,13,09,28.50
2015,07,02,13,10,28.60
2015,07,02,13,11,28.60
2015,07,02,13,12,28.60
2015,07,02,13,13,28.60
2015,07,02,13,14,28.70
2015,07,02,13,15,28.70
2015,07,02,13,16,28.70
2015,07,02,13,17,28.80
2015,07,02,13,18,28.80
2015,07,02,13,19,28.80
2015,07,02,13,20,28.70
2015,07,02,13,21,28.70
2015,07,02,13,22,28.70
2015,07,02,13,23,28.70
2015,07,02,13,24,28.70
2015,07,02,13,25,28.70
2015,07,02,13,26,28.70
2015,07,02,13,27,28.70
2015,07,02,13,28,28.80
2015,07,02,13,29,28.80
2015,07,02,13,30,28.80
2015,07,02,13,31,28.80
2015,07,02,13,32,28.70
2015,07,02,13,33,28.70
2015,07,02,13,34,28.70
2015,07,02,13,35,28.80
2015,07,02,13,36,29.00
2015,07,02,13,37,29.10
2015,07,02,13,38,29.20
2015,07,02,13,39,29.30
2015,07,02,13,40,29.40
2015,07,02,13,41,29.40
2015,07,02,13,42,29.50
2015,07,02,13,43,29.60
2015,07,02,13,44,29.70
2015,07,02,13,45,29.80
2015,07,02,13,46,29.80
2015,07,02,13,47,29.80
2015,07,02,13,48,29.70
2015,07,02,13,49,29.70
2015,07,02,13,50,29.70
2015,07,02,13,51,29.60
2015,07,02,13,52,29.50
2015,07,02,13,53,29.50
2015,07,02,13,54,29.60
2015,07,02,13,55,29.70
2015,07,02,13,56,29.80
2015,07,02,13,57,29.90
2015,07,02,13,58,29.90
2015,07,02,13,59,29.90
2015,07,02,14,00,29.90
2015,07,02,14,01,29.90
2015,07,02,14,02,29.90
2015,07,02,14,03,29.90
2015,07,02,14,04,29.90
2015,07,02,14,05,29.90
2015,07,02,14,06,29.90
2015,07,02,14,07,30.00
2015,07,02,14,08,30.20
2015,07,02,14,09,30.30
2015,07,02,14,10,30.50
2015,07,02,14,11,30.60
2015,07,02,14,12,30.60
2015,07,02,14,13,30.60
2015,07,02,14,14,30.60
2015,07,02,14,15,30.50
2015,07,02,14,16,30.40
2015,07,02,14,17,30.40
2015,07,02,14,18,30.50
2015,07,02,14,19,30.50
2015,07,02,14,20,30.60
2015,07,02,14,21,30.70
2015,07,02,14,22,30.60
2015,07,02,14,23,30.50
2015,07,02,14,24,30.40
2015,07,02,14,25,30.50
2015,07,02,14,26,30.60
2015,07,02,14,27,30.70
2015,07,02,14,28,30.70
2015,07,02,14,29,30.60
2015,07,02,14,30,30.60
2015,07,02,14,31,30.60
2015,07,02,14,32,30.60
2015,07,02,14,33,30.60
2015,07,02,14,34,30.50
2015,07,02,14,35,30.40
2015,07,02,14,36,30.30
2015,07,02,14,37,30.20
2015,07,02,14,38,30.20
2015,07,02,14,39,30.10
2015,07,02,14,40,30.00
2015,07,02,14,41,29.90
2015,07,02,14,42,29.90
2015,07,02,14,43,29.90
2015,07,02,14,44,29.90
2015,07,02,14,45,29.90
2015,07,02,14,46,29.90
2015,07,02,14,47,29.90
2015,07,02,14,48,29.90
2015,07,02,14,49,30.00
2015,07,02,14,50,30.00
2015,07,02,14,51,30.10
2015,07,02,14,52,30.10
2015,07,02,14,53,30.10
2015,07,02,14,54,30.00
2015,07,02,14,55,29.90
2015,07,02,14,56,29.90
2015,07,02,14,57,29.90
2015,07,02,14,58,29.90
2015,07,02,14,59,29.90
2015,07,02,15,00,30.00
2015,07,02,15,01,30.00
2015,07,02,15,02,30.10
2015,07,02,15,03,30.10
2015,07,02,15,04,30.10
2015,07,02,15,05,30.00
2015,07,02,15,06,29.90
2015,07,02,15,07,29.80
2015,07,02,15,08,29.80
2015,07,02,15,09,29.80
2015,07,02,15,10,29.80
2015,07,02,15,11,29.80
2015,07,02,15,12,29.80
2015,07,02,15,13,30.00
2015,07,02,15,14,30.10
2015,07,02,15,15,30.20
2015,07,02,15,16,30.20
2015,07,02,15,17,30.20
2015,07,02,15,18,30.10
2015,07,02,15,19,30.10
2015,07,02,15,20,30.10
2015,07,02,15,21,30.10
2015,07,02,15,22,30.00
2015,07,02,15,23,29.90
2015,07,02,15,24,29.90
2015,07,02,15,25,29.90
2015,07,02,15,26,29.90
2015,07,02,15,27,29.80
2015,07,02,15,28,29.80
2015,07,02,15,29,29.80
2015,07,02,15,30,29.80
2015,07,02,15,31,29.80
2015,07,02,15,32,29.80
2015,07,02,15,33,29.80
2015,07,02,15,34,29.80
2015,07,02,15,35,29.80
2015,07,02,15,36,29.70
2015,07,02,15,37,29.70
2015,07,02,15,38,29.70
2015,07,02,15,39,29.70
2015,07,02,15,40,29.70
2015,07,02,15,41,29.70
2015,07,02,15,42,29.60
2015,07,02,15,43,29.60
2015,07,02,15,44,29.60
2015,07,02,15,45,29.60
2015,07,02,15,46,29.60
2015,07,02,15,47,29.60
2015,07,02,15,48,29.70
2015,07,02,15,49,29.70
2015,07,02,15,50,29.70
2015,07,02,15,51,29.70
2015,07,02,15,52,29.80
2015,07,02,15,53,29.90
2015,07,02,15,54,30.00
2015,07,02,15,55,30.00
2015,07,02,15,56,30.10
2015,07,02,15,57,30.10
2015,07,02,15,58,30.00
2015,07,02,15,59,30.00
2015,07,02,16,00,30.00
2015,07,02,16,01,30.00
2015,07,02,16,02,30.00
2015,07,02,16,03,30.00
2015,07,02,16,04,29.90
2015,07,02,16,05,29.90
2015,07,02,16,06,29.90
2015,07,02,16,07,29.90
2015,07,02,16,08,30.00
2015,07,02,16,09,30.00
2015,07,02,16,10,30.10
2015,07,02,16,11,30.00
2015,07,02,16,12,30.00
2015,07,02,16,13,29.90
2015,07,02,16,14,29.80
2015,07,02,16,15,29.80
2015,07,02,16,16,29.90
2015,07,02,16,17,29.80
2015,07,02,16,18,29.90
2015,07,02,16,19,29.90
2015,07,02,16,20,30.00
2015,07,02,16,21,30.10
2015,07,02,16,22,30.10
2015,07,02,16,23,30.10
2015,07,02,16,24,30.00
2015,07,02,16,25,29.90
2015,07,02,16,26,29.90
2015,07,02,16,27,29.90
2015,07,02,16,28,30.00
2015,07,02,16,29,30.00
2015,07,02,16,30,29.90
2015,07,02,16,31,29.90
2015,07,02,16,32,29.80
2015,07,02,16,33,29.80
2015,07,02,16,34,29.80
2015,07,02,16,35,29.80
2015,07,02,16,36,29.90
2015,07,02,16,37,29.90
2015,07,02,16,38,29.90
2015,07,02,16,39,29.90
2015,07,02,16,40,29.80
2015,07,02,16,41,29.70
2015,07,02,16,42,29.70
2015,07,02,16,43,29.60
2015,07,02,16,44,29.50
2015,07,02,16,45,29.40
2015,07,02,16,46,29.40
2015,07,02,16,47,29.40
2015,07,02,16,48,29.30
2015,07,02,16,49,29.30
2015,07,02,16,50,29.30
2015,07,02,16,51,29.30
2015,07,02,16,52,29.30
2015,07,02,16,53,29.30
2015,07,02,16,54,29.20
2015,07,02,16,55,29.20
2015,07,02,16,56,29.10
2015,07,02,16,57,29.00
2015,07,02,16,58,28.90
2015,07,02,16,59,28.90
2015,07,02,17,00,28.80
2015,07,02,17,01,28.80
2015,07,02,17,02,28.80
2015,07,02,17,03,28.70
2015,07,02,17,04,28.60
2015,07,02,17,05,28.60
2015,07,02,17,06,28.60
2015,07,02,17,07,28.50
2015,07,02,17,08,28.40
2015,07,02,17,09,28.20
2015,07,02,17,10,28.10
2015,07,02,17,11,27.90
2015,07,02,17,12,27.90
2015,07,02,17,13,27.80
2015,07,02,17,14,27.80
2015,07,02,17,15,27.80
2015,07,02,17,16,27.70
2015,07,02,17,17,27.70
2015,07,02,17,18,27.70
2015,07,02,17,19,27.70